[[[{"header":{"parameterUnit":"kt","parameterCategory":2,"dx":1,"dy":1,"la1":30.253999710083008,"la2":30.299108505249023,"lo1":-89.0895004272461,"lo2":-89.04439544677734,"nx":28,"ny":28,"refTime":"2022-11-01T21:00:00:Z","depth":0,"parameterNumber":1,"parameterNumberName":"U-component_of_WINDS"},"data":[0.438,0.4434,0.4446,0.4512,0.4534,0.4581,0.4601,0.4629,0.4653,0.4709,0.4743,0.476,0.4788,0.483,0.4866,0.4872,0.4885,0.4895,0.49,0.4849,0.4843,0.4836,0.4824,0.4899,0.4899,0.495,0.4951,0.4951,0.4336,0.4359,0.4399,0.4445,0.4478,0.4476,0.4512,0.4539,0.4581,0.4613,0.4648,0.4697,0.4738,0.4764,0.4804,0.4828,0.4828,0.4837,0.4834,0.4838,0.4785,0.4771,0.4836,0.4836,0.4836,0.4836,0.4836,0.4836,0.4259,0.4292,0.4328,0.4371,0.4398,0.4429,0.4461,0.4483,0.4521,0.4567,0.4574,0.4621,0.4654,0.471,0.4732,0.4767,0.4759,0.4772,0.4775,0.4777,0.4777,0.4695,0.4775,0.4775,0.4775,0.4775,0.4775,0,0.4206,0.4214,0.4255,0.4297,0.433,0.4365,0.4398,0.4419,0.444,0.4471,0.4517,0.4545,0.4599,0.4642,0.4684,0.4704,0.4702,0.4705,0.4714,0.4709,0.4698,0.4701,0.461,0.4702,0.4702,0.4701,0.4701,0.4701,0.4127,0.4165,0.421,0.4236,0.4258,0.4301,0.4328,0.4345,0.4373,0.4416,0.4444,0.4488,0.4524,0.4594,0.4617,0.4658,0.4657,0.4691,0.4664,0.4657,0.4654,0.465,0.4652,0.4695,0.4696,0.4696,0.4697,0,0.408,0.4101,0.4165,0.4206,0.4217,0.4256,0.429,0.4324,0.4341,0.4389,0.4401,0.4428,0.4472,0.4491,0.4546,0.4554,0.4612,0.4613,0.46,0.46,0.4629,0.4624,0.4728,0.474,0.4667,0.4667,0.4668,0,0.4019,0.4069,0.4098,0.4134,0.4189,0.4206,0.4259,0.428,0.4311,0.4349,0.4353,0.4389,0.4408,0.4445,0.4457,0.4509,0.4521,0.4529,0.4531,0.4527,0.4525,0.4539,0.4534,0.4539,0.4538,0.4538,0.4537,0,0.3941,0.4018,0.4077,0.4097,0.4147,0.4174,0.4195,0.4231,0.4258,0.4296,0.4313,0.4357,0.4381,0.4413,0.4428,0.4408,0.4494,0.447,0.4501,0.4501,0.4517,0.4516,0.4605,0.4537,0.4536,0.4536,0.4536,0,0.3894,0.3935,0.4019,0.4059,0.4079,0.4119,0.4163,0.4201,0.4238,0.4249,0.428,0.4284,0.4334,0.4308,0.4376,0.4346,0.4368,0.4381,0.4384,0.4387,0.4357,0.44,0.4486,0.4494,0.4392,0.4391,0.439,0,0.3797,0.3889,0.3904,0.3984,0.4029,0.4029,0.4074,0.4107,0.4125,0.4165,0.4184,0.423,0.4215,0.4231,0.4263,0.4284,0.4324,0.428,0.4332,0.4333,0.4318,0.4398,0.4405,0.4466,0.4375,0.4376,0.4378,0,0.3724,0.3786,0.38,0.3823,0.3873,0.3911,0.3963,0.4012,0.4037,0.4076,0.4117,0.4184,0.4174,0.4202,0.4211,0.4243,0.4298,0.4228,0.4229,0.4237,0.4371,0.4376,0.4386,0.4296,0.4298,0.4299,0.4366,0,0.3642,0.3693,0.3732,0.3786,0.382,0.3873,0.3895,0.3927,0.3932,0.395,0.4014,0.4048,0.4098,0.4117,0.4123,0.4191,0.4182,0.4172,0.4146,0.42,0.4222,0.4231,0.4111,0.4111,0.411,0.411,0,0,0.3541,0.3615,0.3631,0.3683,0.3712,0.3713,0.3767,0.3795,0.3853,0.3872,0.3859,0.3956,0.3985,0.406,0.4078,0.41,0.4113,0.4095,0.4175,0.4182,0.4189,0.4212,0.4222,0.4109,0.4109,0.4109,0.4109,0,0.3516,0.3548,0.3603,0.3633,0.3679,0.3697,0.371,0.3755,0.377,0.3834,0.3833,0.3874,0.3954,0.3983,0.4008,0.4087,0.4082,0.4101,0.4134,0.417,0.4177,0.4184,0.4209,0.4218,0.4107,0.4107,0.4107,0,0.3445,0.348,0.351,0.3578,0.3609,0.3656,0.3635,0.3688,0.3722,0.3721,0.3785,0.3807,0.3849,0.3919,0.3951,0.394,0.4053,0.4023,0.4027,0.403,0.4065,0.4075,0.4083,0.3971,0.3971,0.397,0,0,0.342,0.3468,0.3511,0.3575,0.3594,0.3622,0.365,0.3658,0.3698,0.3713,0.3742,0.3779,0.3825,0.3855,0.39,0.3974,0.3982,0.4005,0.4012,0.4017,0.4023,0.406,0.4069,0.3968,0.3968,0.3968,0,0,0.3407,0.3459,0.3458,0.3536,0.3573,0.3619,0.3656,0.3655,0.3699,0.3695,0.3711,0.3722,0.3788,0.381,0.3779,0.389,0.3865,0.3873,0.3873,0.3882,0.3888,0.388,0.3761,0,0,0,0,0,0.3393,0.3453,0.3451,0.3468,0.3556,0.362,0.3631,0.3646,0.3627,0.3656,0.3679,0.3675,0.3796,0.3768,0.3784,0.3818,0.394,0.3945,0.395,0.3968,0.3976,0.3983,0,0,0,0,0,0,0.34,0.342,0.345,0.3498,0.3518,0.3618,0.3588,0.3594,0.3624,0.3622,0.367,0.3676,0.369,0.3761,0.3775,0.3807,0.3756,0.3942,0.3947,0.395,0.397,0.3977,0.3983,0,0,0,0,0,0.3405,0.3421,0.3559,0.3497,0.3514,0.3549,0.3586,0.3591,0.3614,0.3652,0.3658,0.3623,0.369,0.3703,0.377,0.3801,0.3747,0.3752,0.3945,0.3948,0.3951,0.3974,0,0,0,0,0,0,0.3409,0.3426,0.3562,0.3568,0.3476,0.3543,0.3555,0.3588,0.3642,0.3649,0.3605,0.3603,0.3692,0.3701,0.3711,0.3798,0.3739,0.3745,0.3748,0.3948,0.395,0.3952,0,0,0,0,0,0,0.3417,0.343,0.3565,0.3538,0.3541,0.3538,0.3548,0.3608,0.3643,0.3593,0.3592,0.3604,0.3677,0.37,0.3708,0.38,0.3734,0.3738,0.3742,0.3744,0.395,0.3952,0,0,0,0,0,0,0.3423,0.3435,0.3537,0.3539,0.3541,0.3607,0.3591,0.368,0.362,0.359,0.3615,0.3613,0.3676,0.3684,0.3705,0.3795,0.3799,0.3734,0.3737,0.3739,0.3741,0,0,0,0,0,0,0,0.3428,0.3346,0.3528,0.354,0.3542,0.3621,0.3623,0.3625,0.362,0.3618,0.3616,0.3614,0.3705,0.3711,0.3716,0.379,0,0,0.3733,0.3736,0,0,0,0,0,0,0,0,0.3342,0.3345,0.3529,0.353,0.3531,0.3622,0.3623,0.3624,0.362,0.3618,0.3616,0.3615,0.3707,0.3711,0.3716,0,0,0,0,0,0,0,0,0,0,0,0,0,0,0,0.3529,0.353,0,0.3622,0.3623,0.3624,0.3619,0.3618,0.3617,0.3615,0.3708,0.3712,0.3715,0,0,0,0,0,0,0,0,0,0,0,0,0,0,0,0,0,0,0,0,0,0,0,0,0,0,0,0,0,0,0,0,0,0,0,0,0,0,0,0,0,0,0,0,0,0,0,0,0,0,0,0,0,0,0,0,0,0,0,0,0,0,0,0,0,0,0,0,0]}],[{"header":{"parameterUnit":"kt","parameterCategory":2,"dx":1,"dy":1,"la1":30.253999710083008,"la2":30.299108505249023,"lo1":-89.0895004272461,"lo2":-89.04439544677734,"nx":28,"ny":28,"refTime":"2022-11-01T21:00:00:Z","depth":0,"parameterNumber":2,"parameterNumberName":"V-component_of_WINDS"},"data":[1.461,1.4563,1.4502,1.4419,1.4349,1.4279,1.4234,1.4169,1.41,1.4007,1.3941,1.3871,1.3774,1.3677,1.36,1.3568,1.3538,1.3568,1.3525,1.3456,1.3442,1.3428,1.3435,1.3564,1.3564,1.3604,1.3604,1.3605,1.4563,1.4495,1.4434,1.4332,1.4278,1.4213,1.4125,1.4082,1.4021,1.3936,1.3869,1.378,1.3701,1.359,1.3501,1.3473,1.3434,1.3453,1.3451,1.3436,1.3361,1.3369,1.3486,1.3486,1.3486,1.3486,1.3486,1.3486,1.4461,1.4436,1.4338,1.427,1.4202,1.4133,1.4097,1.4012,1.3949,1.3853,1.3788,1.3716,1.3616,1.3476,1.3412,1.3351,1.3317,1.3316,1.3314,1.3314,1.3323,1.3267,1.3333,1.3333,1.3332,1.3332,1.3331,0,1.4364,1.4314,1.4252,1.417,1.4117,1.4047,1.3971,1.3947,1.3815,1.3768,1.3693,1.3638,1.3529,1.3448,1.335,1.3282,1.3202,1.3189,1.3186,1.3214,1.3252,1.3226,1.3103,1.3186,1.3184,1.3183,1.3182,1.3182,1.4252,1.4232,1.4099,1.4063,1.4006,1.395,1.3902,1.3787,1.3741,1.3629,1.361,1.353,1.3459,1.3346,1.3241,1.3157,1.3116,1.3155,1.3103,1.3132,1.311,1.3111,1.3106,1.3166,1.3168,1.3169,1.3171,0,1.4193,1.4091,1.4039,1.3908,1.3874,1.3857,1.3743,1.3712,1.3632,1.3577,1.3557,1.3429,1.3356,1.3244,1.3137,1.308,1.3042,1.3007,1.3075,1.306,1.308,1.3078,1.317,1.3174,1.3045,1.3046,1.3048,0,1.4054,1.4032,1.3879,1.3854,1.3824,1.3709,1.3681,1.3609,1.3522,1.3478,1.3373,1.3333,1.3197,1.3139,1.3055,1.3005,1.2986,1.2937,1.2914,1.2944,1.2949,1.2911,1.2903,1.2869,1.2869,1.2868,1.2868,0,1.3969,1.3863,1.3822,1.3781,1.3637,1.362,1.3559,1.3461,1.3415,1.3337,1.3304,1.3222,1.3175,1.311,1.3003,1.2972,1.2941,1.2875,1.289,1.2892,1.2885,1.2886,1.3001,1.2868,1.2867,1.2867,1.2867,0,1.3838,1.3767,1.3726,1.3602,1.3578,1.3552,1.3463,1.3415,1.3318,1.3264,1.3201,1.3116,1.3067,1.3009,1.2937,1.2926,1.2885,1.2835,1.2834,1.2817,1.2755,1.2828,1.2954,1.296,1.2809,1.2808,1.2808,0,1.3767,1.3699,1.3599,1.3562,1.3514,1.3398,1.3366,1.3284,1.321,1.3155,1.3071,1.3009,1.2943,1.2908,1.2888,1.2796,1.2811,1.2792,1.2706,1.2704,1.2731,1.2846,1.2891,1.294,1.28,1.2801,1.2802,0,1.3698,1.3526,1.3527,1.3472,1.3349,1.3308,1.3273,1.3187,1.3156,1.3077,1.304,1.2954,1.2898,1.2841,1.2762,1.2747,1.2797,1.2689,1.2684,1.2708,1.2789,1.283,1.2839,1.2747,1.2748,1.2748,1.2796,0,1.3515,1.3468,1.3467,1.3355,1.3307,1.3279,1.3162,1.3126,1.3056,1.2977,1.2923,1.2825,1.2735,1.2718,1.2648,1.2652,1.2632,1.2574,1.2505,1.2584,1.2595,1.2601,1.2497,1.2494,1.2492,1.249,0,0,1.3469,1.3399,1.3291,1.3253,1.3205,1.3084,1.3064,1.3002,1.2882,1.285,1.2812,1.2675,1.2597,1.2542,1.2558,1.2523,1.251,1.2488,1.2548,1.2556,1.2562,1.2577,1.2585,1.2486,1.2485,1.2484,1.2483,0,1.3377,1.3307,1.3291,1.3223,1.3119,1.3037,1.3034,1.2908,1.2856,1.2805,1.2702,1.2655,1.255,1.2479,1.2429,1.2493,1.2415,1.2476,1.2548,1.253,1.254,1.2549,1.2566,1.2575,1.2478,1.2478,1.2478,0,1.3284,1.3194,1.3174,1.3063,1.2993,1.2948,1.2848,1.2806,1.2769,1.2635,1.2584,1.2514,1.241,1.2376,1.2357,1.232,1.2335,1.2311,1.2322,1.2315,1.2291,1.2304,1.2315,1.2168,1.2167,1.2167,0,0,1.322,1.3177,1.3042,1.3034,1.2998,1.2876,1.284,1.2765,1.2677,1.2642,1.2549,1.2464,1.24,1.2361,1.2296,1.2277,1.2242,1.2278,1.2292,1.2304,1.2305,1.2285,1.2297,1.2165,1.2165,1.2165,0,0,1.3187,1.3032,1.2977,1.2954,1.2876,1.274,1.2738,1.2666,1.2596,1.2586,1.2455,1.2426,1.2393,1.2327,1.2312,1.2268,1.2203,1.2204,1.2311,1.2328,1.2342,1.2357,1.2192,0,0,0,0,0,1.3033,1.3051,1.3004,1.2982,1.284,1.2768,1.2748,1.2642,1.2598,1.2599,1.2509,1.243,1.2291,1.2275,1.2254,1.227,1.2136,1.2141,1.2146,1.2279,1.2298,1.2314,0,0,0,0,0,0,1.3023,1.2998,1.3002,1.287,1.2837,1.2766,1.2667,1.2639,1.2595,1.2581,1.245,1.2426,1.2332,1.2278,1.2261,1.2279,1.2198,1.2138,1.2143,1.2146,1.2286,1.2301,1.2315,0,0,0,0,0,1.3016,1.2995,1.2795,1.2869,1.284,1.2704,1.2666,1.2641,1.2605,1.2467,1.244,1.2529,1.2336,1.2313,1.2267,1.2289,1.2209,1.2203,1.2141,1.2144,1.2147,1.2293,0,0,0,0,0,0,1.301,1.297,1.2787,1.2774,1.2854,1.2706,1.2679,1.2644,1.2491,1.2465,1.254,1.253,1.2338,1.232,1.2304,1.2299,1.2218,1.2212,1.2208,1.2144,1.2146,1.2149,0,0,0,0,0,0,1.2981,1.2961,1.278,1.2768,1.2752,1.2708,1.2684,1.2629,1.2491,1.2572,1.2559,1.2537,1.2361,1.2326,1.2313,1.2231,1.2225,1.2219,1.2215,1.2213,1.2146,1.2148,0,0,0,0,0,0,1.297,1.2953,1.277,1.2759,1.2745,1.2592,1.2657,1.2516,1.2484,1.258,1.2478,1.2475,1.2369,1.2353,1.2319,1.2244,1.2234,1.2225,1.2221,1.2218,1.2216,0,0,0,0,0,0,0,1.2962,1.3104,1.2864,1.2751,1.2739,1.2655,1.2652,1.2648,1.2484,1.2481,1.2479,1.2476,1.2259,1.2252,1.2246,1.2254,0,0,1.2225,1.2223,0,0,0,0,0,0,0,0,1.3109,1.3106,1.2864,1.2861,1.2858,1.2655,1.2652,1.2649,1.2483,1.2481,1.2479,1.2477,1.2257,1.2252,1.2246,0,0,0,0,0,0,0,0,0,0,0,0,0,0,0,1.2863,1.2861,0,1.2654,1.2652,1.265,1.2483,1.2481,1.248,1.2478,1.2255,1.2251,1.2247,0,0,0,0,0,0,0,0,0,0,0,0,0,0,0,0,0,0,0,0,0,0,0,0,0,0,0,0,0,0,0,0,0,0,0,0,0,0,0,0,0,0,0,0,0,0,0,0,0,0,0,0,0,0,0,0,0,0,0,0,0,0,0,0,0,0,0,0,0]}]]]